Riverside, CA

11:53 AM PDT on July 20, 2017 (GMT -0700)
Riverside Municipal

Weather History for KRAL - October, 2014

Change the Weather History Date:

Thursday, October 2, 2014

  Actual Average Record
Temperature  
Mean Temperature 79 °F 72 °F  
Max Temperature 97 °F 86 °F 108 °F (1980)
Min Temperature 60 °F 59 °F 39 °F (1950)
Degree Days  
Heating Degree Days 0 0  
Month to date heating degree days 0 0  
Since 1 July heating degree days 0 2  
Cooling Degree Days 14 7  
Month to date cooling degree days 23 15  
Year to date cooling degree days 2066 1607  
Growing Degree Days 29 (Base 50)    
Moisture  
Dew Point 32 °F    
Average Humidity 45    
Maximum Humidity 84    
Minimum Humidity 5    
Precipitation  
Precipitation 0.00 in 0.00 in 0.32 in (1916)
Month to date precipitation 0.00 0.00  
Year to date precipitation 2.09 9.59  
Since 1 July precipitation 0.37  
Snow  
Snow 0.00 in - - ()
Month to date snowfall 0.0  
Year to date snowfall 0.0  
Snow Depth 0.00 in    
Sea Level Pressure  
Sea Level Pressure 29.91 in    
Wind  
Wind Speed 6 mph (NE)    
Max Wind Speed 15 mph    
Max Gust Speed 24 mph    
Visibility 10 miles    
Events      
T = Trace of Precipitation, MM = Missing Value Source: NWS Daily Summary

Daily Weather History Graph

Daily Weather History Graph

Search for Another Location

Airport or City:

Trip Planner

Search our weather history database for the weather conditions in past years. The results will help you decide how hot, cold, wet, or windy it might be!

Date:

Astronomy

Oct. 02, 2014 Rise Set
Actual Time 6:45 AM PDT 6:32 PM PDT
Civil Twilight 6:20 AM PDT 6:57 PM PDT
Nautical Twilight 5:51 AM PDT 7:26 PM PDT
Astronomical Twilight 5:22 AM PDT 7:55 PM PDT
Moon 2:28 PM PDT (10/2) 12:21 AM PDT (10/2)
Length of Visible Light 12h 37m
Length of Day
11h 47m
First Quarter, 61% of the Moon is Illuminated
Oct 2
First Quarter
Oct 8
Full
Oct 15
Last Quarter
Oct 23
New
Oct 30
First Quarter

Hourly Weather History & Observations

Time (PDT) Temp. Dew Point Humidity Pressure Visibility Wind Dir Wind Speed Gust Speed Precip Events Conditions
12:53 AM 66.0 °F 57.9 °F 75% 29.86 in 10.0 mi SE 3.5 mph - N/A   Clear
1:53 AM 64.9 °F 57.9 °F 78% 29.87 in 10.0 mi NE 3.5 mph - N/A   Clear
2:53 AM 63.0 °F 57.0 °F 81% 29.87 in 10.0 mi Calm Calm - N/A   Clear
3:53 AM 63.0 °F 57.0 °F 81% 29.87 in 10.0 mi ENE 4.6 mph - N/A   Clear
4:53 AM 63.0 °F 53.1 °F 70% 29.88 in 10.0 mi ENE 5.8 mph - N/A   Clear
5:53 AM 62.1 °F 52.0 °F 70% 29.91 in 10.0 mi ENE 5.8 mph - N/A   Clear
6:53 AM 61.0 °F 48.9 °F 64% 29.94 in 10.0 mi North - - N/A   Clear
7:53 AM 66.0 °F 46.9 °F 50% 29.96 in 10.0 mi ENE 4.6 mph - N/A   Clear
8:53 AM 72.0 °F 45.0 °F 38% 29.97 in 10.0 mi NE 5.8 mph - N/A   Clear
9:53 AM 84.0 °F 36.0 °F 18% 29.96 in 10.0 mi ESE 3.5 mph - N/A   Clear
10:53 AM 89.1 °F 19.9 °F 8% 29.96 in 10.0 mi East 8.1 mph - N/A   Clear
11:53 AM 91.9 °F 18.0 °F 7% 29.94 in 10.0 mi NE 8.1 mph - N/A   Clear
12:53 PM 93.9 °F 15.1 °F 6% 29.92 in 10.0 mi NNE 9.2 mph - N/A   Clear
1:53 PM 95.0 °F 12.9 °F 5% 29.90 in 10.0 mi North 8.1 mph 18.4 mph N/A   Clear
2:53 PM 96.1 °F 12.0 °F 5% 29.88 in 10.0 mi ENE 8.1 mph - N/A   Clear
3:53 PM 97.0 °F 12.0 °F 4% 29.87 in 10.0 mi North 9.2 mph 17.3 mph N/A   Clear
4:53 PM 96.1 °F 12.0 °F 5% 29.86 in 10.0 mi NNE 10.4 mph - N/A   Clear
5:53 PM 93.0 °F 15.1 °F 6% 29.88 in 10.0 mi Variable 5.8 mph - N/A   Clear
6:53 PM 88.0 °F 12.0 °F 6% 29.89 in 10.0 mi NE 6.9 mph - N/A   Clear
7:53 PM 87.1 °F 10.9 °F 6% 29.91 in 10.0 mi NNE 6.9 mph - N/A   Clear
8:53 PM 84.0 °F 30.9 °F 15% 29.94 in 10.0 mi Calm Calm - N/A   Clear
9:53 PM 78.1 °F 30.0 °F 17% 29.95 in 10.0 mi Calm Calm - N/A   Clear
10:53 PM 75.0 °F 25.0 °F 16% 29.96 in 10.0 mi East 4.6 mph - N/A   Clear
11:53 PM 75.9 °F 21.0 °F 13% 29.96 in 10.0 mi East 5.8 mph - N/A   Clear